Location: Go�ngahuizen
(53.0821°N, 5.8849°E)
Time: 00:05:54
(UTC+00:00)

Cosmos 1356 Rocket - Pass Details

Date: 09 April 2020
Orbit: 542 x 599 km, 81.2° (Epoch: 30 May)

Event Time Altitude Azimuth Distance (km) Brightness Sun altitude
Exits shadow 20:13:34 26° 112° (ESE) 1,172 4.4 -15.2°
Maximum altitude 20:14:23 28° 92° (E) 1,118 4.4 -15.3°
Drops below altitude 10° 20:18:01 10° 33° (NNE) 1,920 6.1 -15.8°
Sets 20:20:25 0° 22° (NNE) 2,816 7.2 -16.0°
